Tracking 18945 objects as of 20-Jan-2018
HD Live streaming from Space Station
objects crossing your sky now

FLOCK 3P 82

Track FLOCK 3P 82 now!
10-day predictions
FLOCK 3P 82 is classified as:


NORAD ID: 42046
Int'l Code: 2017-008DC
Perigee: 494.5 km
Apogee: 507.3 km
Inclination: 97.5 °
Period: 94.5 minutes
Semi major axis: 6871 km
RCS: Unknown
Launch date: February 15, 2017
Source: United States (US)
Launch site: SRIHARIKOTA (SRI)
aabbcc
Your satellite tracking list
Your tracking list is empty




NASA's NSSDC Master Catalog

Two Line Element Set (TLE):
1 42046U 17008DC  18019.88211396 +.00002156 +00000-0 +91880-4 0  9993
2 42046 097.4719 085.6449 0009290 148.6442 211.5351 15.24011864050757
Source of the keplerian elements: AFSPC